TimeEST,TemperatureF,Dew PointF,Humidity,Sea Level PressureIn,VisibilityMPH,Wind Direction,Wind SpeedMPH,Gust SpeedMPH,PrecipitationIn,Events,Conditions,WindDirDegrees,DateUTC
12:54 AM,41.0,36.0,82,30.34,9.0,NNE,4.6,-,N/A,,Overcast,20,2013-12-01 05:54:00
1:54 AM,42.1,35.1,76,30.33,8.0,North,4.6,-,N/A,,Mostly Cloudy,360,2013-12-01 06:54:00
2:54 AM,39.9,35.1,83,30.31,8.0,North,3.5,-,N/A,,Partly Cloudy,10,2013-12-01 07:54:00
3:54 AM,39.0,35.1,86,30.29,6.0,NNW,3.5,-,N/A,,Partly Cloudy,330,2013-12-01 08:54:00
4:54 AM,39.9,35.1,83,30.28,7.0,North,4.6,-,N/A,,Overcast,350,2013-12-01 09:54:00
5:54 AM,41.0,35.1,79,30.28,7.0,North,3.5,-,N/A,,Overcast,10,2013-12-01 10:54:00
6:54 AM,39.9,35.1,83,30.28,7.0,North,3.5,-,N/A,,Mostly Cloudy,350,2013-12-01 11:54:00
7:54 AM,41.0,36.0,82,30.29,6.0,North,4.6,-,N/A,,Haze,10,2013-12-01 12:54:00
8:54 AM,44.1,37.0,76,30.28,7.0,ENE,3.5,-,N/A,,Overcast,60,2013-12-01 13:54:00
9:54 AM,46.9,39.0,74,30.26,8.0,NNE,4.6,-,N/A,,Overcast,30,2013-12-01 14:54:00
10:54 AM,46.9,39.9,77,30.25,9.0,Calm,Calm,-,N/A,,Overcast,0,2013-12-01 15:54:00
11:54 AM,48.9,41.0,74,30.22,10.0,NW,4.6,-,N/A,,Overcast,310,2013-12-01 16:54:00
12:54 PM,52.0,41.0,66,30.18,10.0,Calm,Calm,-,N/A,,Overcast,0,2013-12-01 17:54:00
1:54 PM,55.9,42.1,60,30.14,10.0,Calm,Calm,-,N/A,,Overcast,0,2013-12-01 18:54:00
2:54 PM,57.0,43.0,59,30.12,10.0,North,-9999.0,-,N/A,,Overcast,0,2013-12-01 19:54:00
3:54 PM,57.0,42.1,57,30.10,10.0,East,3.5,-,N/A,,Overcast,80,2013-12-01 20:54:00
4:54 PM,55.0,45.0,69,30.10,10.0,Calm,Calm,-,N/A,,Overcast,0,2013-12-01 21:54:00
5:54 PM,50.0,44.1,80,30.09,10.0,Calm,Calm,-,N/A,,Partly Cloudy,0,2013-12-01 22:54:00
6:54 PM,48.9,45.0,86,30.08,10.0,Calm,Calm,-,N/A,,Overcast,0,2013-12-01 23:54:00
7:54 PM,50.0,46.0,86,30.08,10.0,Calm,Calm,-,N/A,,Overcast,0,2013-12-02 00:54:00
8:54 PM,48.0,45.0,89,30.07,8.0,Calm,Calm,-,N/A,,Mostly Cloudy,0,2013-12-02 01:54:00
9:54 PM,46.9,44.1,90,30.05,6.0,Calm,Calm,-,N/A,,Mostly Cloudy,0,2013-12-02 02:54:00
10:54 PM,44.1,42.1,93,30.04,5.0,WNW,3.5,-,N/A,,Mostly Cloudy,290,2013-12-02 03:54:00
11:54 PM,42.1,41.0,96,30.02,1.8,Calm,Calm,-,N/A,,Clear,0,2013-12-02 04:54:00